Weather History for J6-a Sea, Netherlands

Change the Weather History Date:

Tuesday, January 7, 2014

  Actual Average Record
Temperature  
Mean Temperature 47 °F -  
Max Temperature 49 °F - - ()
Min Temperature 45 °F - - ()
Degree Days  
Heating Degree Days 18    
Moisture  
Dew Point 43 °F    
Average Humidity 80    
Maximum Humidity 92    
Minimum Humidity 73    
Precipitation  
Precipitation 0.00 in - - ()
Sea Level Pressure  
Sea Level Pressure 29.52 in    
Wind  
Wind Speed 30 mph ()    
Max Wind Speed 41 mph    
Max Gust Speed 37 mph    
Visibility 6.8 miles    
Events Rain    
T = Trace of Precipitation, MM = Missing Value Source: Averaged Metar Reports

Daily Weather History Graph

Daily Weather History Graph

Search for Another Location

Airport:

Trip Planner

Search our weather history database for the weather conditions in past years. The results will help you decide how hot, cold, wet, or windy it might be!

Date:

Astronomy

Jan. 07, 2014 Rise Set
Actual Time 9:04 AM CET 4:45 PM CET
Civil Twilight 8:21 AM CET 5:27 PM CET
Nautical Twilight 7:36 AM CET 6:12 PM CET
Astronomical Twilight 6:53 AM CET 6:55 PM CET
Moon 11:38 AM CET (1/7) 12:01 AM CET (1/7)
Length of Visible Light 9h 06m
Length of Day
7h 41m
Waxing Crescent, 42% of the Moon is Illuminated
Jan 7
Waxing Crescent
Jan 8
First Quarter
Jan 16
Full
Jan 24
Last Quarter
Jan 30
New

Hourly Weather History & Observations

Time (CET) Temp. Windchill Dew Point Humidity Pressure Visibility Wind Dir Wind Speed Gust Speed Precip Events Conditions
12:00 AM 49 °F - 44 °F 76% 29.38 in 6 mi South 29.1 mph - -  
12:25 AM 50.0 °F - 42.8 °F 76% 29.36 in 6.2 mi South 34.5 mph - N/A   Unknown
12:55 AM 48.2 °F - 42.8 °F 82% 29.39 in 6.2 mi SSW 34.5 mph - N/A   Unknown
1:00 AM 49 °F - 43 °F 74% 29.39 in 7 mi SSW 29.1 mph - -   Partly Cloudy
1:25 AM 48.2 °F - 42.8 °F 82% 29.39 in 6.2 mi SSW 32.2 mph - N/A   Unknown
1:55 AM 48.2 °F - 42.8 °F 82% 29.39 in 6.2 mi SSW 32.2 mph - N/A   Unknown
2:00 AM 49 °F - 44 °F 75% 29.40 in 7 mi SSW 26.8 mph - -   Scattered Clouds
2:25 AM 48.2 °F - 42.8 °F 82% 29.39 in 6.2 mi SSW 33.4 mph - N/A   Unknown
2:55 AM 50.0 °F - 42.8 °F 76% 29.42 in 6.2 mi SSW 36.8 mph - N/A   Unknown
3:00 AM 49 °F - 43 °F 73% 29.42 in 8 mi SSW 31.3 mph - -   Scattered Clouds
3:25 AM 48.2 °F - 42.8 °F 82% 29.42 in 6.2 mi SSW 35.7 mph - N/A   Unknown
3:55 AM 48.2 °F - 42.8 °F 82% 29.44 in 6.2 mi SSW 34.5 mph - N/A   Unknown
4:00 AM 49 °F - 43 °F 73% 29.45 in 8 mi SSW 29.1 mph - -   Scattered Clouds
4:25 AM 48.2 °F - 42.8 °F 82% 29.44 in 6.2 mi SSW 34.5 mph - N/A   Unknown
4:55 AM 48.2 °F - 42.8 °F 82% 29.44 in 6.2 mi SSW 35.7 mph - N/A   Unknown
5:00 AM 48 °F - 43 °F 75% 29.47 in 9 mi SSW 29.1 mph - -  
5:25 AM 48.2 °F - 42.8 °F 82% 29.44 in 6.2 mi SSW 34.5 mph - N/A   Unknown
5:55 AM 48.2 °F - 42.8 °F 82% 29.47 in 6.2 mi SSW 35.7 mph - N/A   Unknown
6:00 AM 49 °F - 43 °F 74% 29.47 in 8 mi SSW 29.1 mph - -  
6:25 AM 48.2 °F - 42.8 °F 82% 29.47 in 6.2 mi South 33.4 mph - N/A   Unknown
6:55 AM 48.2 °F - 42.8 °F 82% 29.47 in 6.2 mi South 33.4 mph - N/A   Unknown
7:00 AM 49 °F - 44 °F 76% 29.49 in 7 mi South 29.1 mph - -   Partly Cloudy
7:25 AM 48.2 °F - 44.6 °F 87% 29.47 in 6.2 mi South 35.7 mph - N/A   Unknown
7:55 AM 48.2 °F - 44.6 °F 87% 29.47 in 6.2 mi South 35.7 mph - N/A   Unknown
8:00 AM 49 °F - 44 °F 75% 29.50 in 7 mi South 29.1 mph - -   Partly Cloudy
8:25 AM 48.2 °F - 42.8 °F 82% 29.50 in 6.2 mi South 34.5 mph - N/A   Unknown
8:55 AM 50.0 °F - 42.8 °F 76% 29.50 in 6.2 mi South 38.0 mph - N/A   Unknown
9:00 AM 49 °F - 44 °F 76% 29.51 in 9 mi SSW 31.3 mph - -   Mostly Cloudy
9:25 AM 50.0 °F - 44.6 °F 82% 29.50 in 6.2 mi SSW 41.4 mph - N/A Rain Light Rain
9:55 AM 48.2 °F - 44.6 °F 87% 29.53 in 5.6 mi SSW 25.3 mph 36.8 mph N/A Rain Light Rain
10:00 AM 45 °F - 44 °F 92% 29.53 in 3 mi SSW 24.6 mph - - Rain Rain Showers
10:25 AM 46.4 °F 36.9 °F 42.8 °F 87% 29.53 in 4.3 mi SSW 32.2 mph - N/A Rain Light Rain
10:55 AM 48.2 °F - 44.6 °F 87% 29.53 in 6.2 mi SSW 32.2 mph - N/A   Light Drizzle
11:00 AM 48 °F - 45 °F 84% 29.54 in 6 mi SSW 29.1 mph - - Rain Rain
11:25 AM 48.2 °F - 42.8 °F 82% 29.53 in 6.2 mi SSW 35.7 mph - N/A   Partly Cloudy
11:55 AM 48.2 °F - 42.8 °F 82% 29.53 in 6.2 mi SSW 31.1 mph - N/A   Unknown
12:00 PM 48 °F - 43 °F 78% 29.54 in 9 mi SSW 24.6 mph - -   Partly Cloudy
12:25 PM 48.2 °F - 44.6 °F 87% 29.53 in 6.2 mi South 31.1 mph - N/A   Unknown
12:55 PM 48.2 °F - 44.6 °F 87% 29.50 in 6.2 mi SSW 28.8 mph - N/A   Partly Cloudy
1:00 PM 48 °F - 44 °F 81%  in 6 mi South 24.6 mph - - Rain Light Rain Showers
1:25 PM 48.2 °F - 44.6 °F 87% 29.53 in 3.7 mi South 34.5 mph - N/A Rain Light Rain
1:55 PM 46.4 °F 36.9 °F 42.8 °F 87% 29.47 in 6.2 mi South 32.2 mph - N/A Rain Light Rain
2:00 PM 47 °F - 42 °F 77% 29.52 in 10 mi SSW 26.8 mph - - Rain Rain
2:25 PM 48.2 °F - 41.0 °F 76% 29.50 in 6.2 mi SSW 32.2 mph - N/A   Partly Cloudy
2:55 PM 48.2 °F - 41.0 °F 76% 29.53 in 6.2 mi SSW 35.7 mph - N/A   Unknown
3:00 PM 47 °F - 42 °F 76%  in 10 mi SSW 29.1 mph - -   Partly Cloudy
3:25 PM 48.2 °F - 41.0 °F 76% 29.53 in 6.2 mi SSW 39.1 mph - N/A   Unknown
3:55 PM 48.2 °F - 41.0 °F 76% 29.53 in 6.2 mi SSW 36.8 mph - N/A   Unknown
4:00 PM 47 °F - 41 °F 74% 29.55 in 14 mi SSW 29.1 mph - -   Partly Cloudy
4:25 PM 46.4 °F 36.5 °F 41.0 °F 81% 29.53 in 6.2 mi SSW 34.5 mph - N/A   Unknown
4:55 PM 48.2 °F - 41.0 °F 76% 29.56 in 6.2 mi SSW 32.2 mph - N/A   Unknown
5:00 PM 47 °F - 42 °F 76% 29.57 in 13 mi SSW 26.8 mph - -   Partly Cloudy
5:25 PM 48.2 °F - 42.8 °F 82% 29.56 in 6.2 mi SSW 29.9 mph - N/A   Unknown
5:55 PM 48.2 °F - 42.8 °F 82% 29.56 in 6.2 mi South 27.6 mph - N/A   Unknown
6:00 PM 48 °F - 43 °F 77% 29.59 in 9 mi South 24.6 mph - -   Partly Cloudy
6:25 PM 48.2 °F - 42.8 °F 82% 29.56 in 6.2 mi South 29.9 mph - N/A   Unknown
6:55 PM 48.2 °F - 42.8 °F 82% 29.59 in 6.2 mi South 32.2 mph - N/A   Unknown
7:00 PM 48 °F - 44 °F 79% 29.60 in 7 mi South 26.8 mph - -   Partly Cloudy
7:25 PM 48.2 °F - 44.6 °F 87% 29.59 in 6.2 mi South 32.2 mph - N/A   Unknown
7:55 PM 48.2 °F - 42.8 °F 82% 29.59 in 6.2 mi SSW 34.5 mph - N/A   Unknown
8:00 PM 49 °F - 43 °F 73% 29.60 in 8 mi SSW 29.1 mph - -  
8:25 PM 48.2 °F - 42.8 °F 82% 29.59 in 6.2 mi SSW 33.4 mph - N/A   Unknown
8:55 PM 48.2 °F - 42.8 °F 82% 29.62 in 6.2 mi SSW 34.5 mph - N/A   Unknown
9:00 PM 49 °F - 43 °F 73% 29.62 in 8 mi SSW 29.1 mph - -   Scattered Clouds
9:25 PM 48.2 °F - 42.8 °F 82% 29.62 in 6.2 mi SSW 34.5 mph - N/A   Unknown
9:55 PM 48.2 °F - 42.8 °F 82% 29.62 in 6.2 mi SSW 35.7 mph - N/A   Unknown
10:00 PM 48 °F - 43 °F 77% 29.64 in 7 mi SSW 29.1 mph - -  
10:25 PM 48.2 °F - 42.8 °F 82% 29.62 in 6.2 mi SSW 34.5 mph - N/A   Unknown
10:55 PM 48.2 °F - 42.8 °F 82% 29.62 in 6.2 mi SSW 35.7 mph - N/A   Unknown
11:00 PM 48 °F - 43 °F 77% 29.65 in 8 mi SSW 29.1 mph - -  
11:25 PM 48.2 °F - 42.8 °F 82% 29.65 in 6.2 mi SSW 33.4 mph - N/A   Unknown
11:55 PM 48.2 °F - 42.8 °F 82% 29.65 in 6.2 mi SSW 32.2 mph - N/A   Unknown